Regional Weather Roundup
Issued by NWS Little Rock, AR

Home | Current Version | Previous Version | Text Only | Print | Product List | Glossary On
Versions: 1 2 3 4 5 6 7 8 9 10 11 12 13 14 15 16 17 18 19 20 21 22 23 24 25 26 27 28 29 30 31 32 33 34 35 36 37 38 39 40 41 42 43 44 45 46 47 48 49 50
000
ASUS44 KLZK 012105
RWRLZK

WEATHER ROUNDUP FOR ARKANSAS
NATIONAL WEATHER SERVICE LITTLE ROCK AR
300 PM CST SUN FEB 01 2015

NOTE: "FAIR" INDICATES FEW OR NO CLOUDS BELOW 12,000 FEET WITH NO
SIGNIFICANT WEATHER AND/OR OBSTRUCTIONS TO VISIBILITY.

ARZ001-003-010-029-012200-
NORTHWEST ARKANSAS

CITY           SKY/WX    TMP DP  RH WIND       PRES   REMARKS
FAYETTEVILLE   CLOUDY    33  29  85 NW14G22   29.92R WCI  23
FORT SMITH     CLOUDY    42  30  62 NW21G26   29.95R
HARRISON       CLOUDY    35  33  92 W15G28    29.82R WCI  25
BENTONVILLE    CLOUDY    30  25  80 NW21G29   29.93R WCI  17
ROGERS         CLOUDY    31  28  89 W18G28    29.91R WCI  19
SILOAM SPGS    CLOUDY    32  21  64 NW21G26   29.96R WCI  20
HIGHFILL       CLOUDY    32  26  78 NW21G29   29.92R WCI  20
SPRINGDALE     CLOUDY    32  28  86 NW14G28   29.92R WCI  22
$$

ARZ004-005-016-012200-
NORTH CENTRAL ARKANSAS

CITY           SKY/WX    TMP DP  RH WIND       PRES   REMARKS
BATESVILLE     CLOUDY    52  45  76 W15G22    29.73R
FLIPPIN        CLOUDY   N/A N/A N/A NW21G29   29.79R
MTN HOME       CLOUDY    39  35  86 NW15G28   29.78R
$$

ARZ040-041-012200-
WEST CENTRAL ARKANSAS

CITY           SKY/WX    TMP DP  RH WIND       PRES   REMARKS
MENA           CLOUDY    45  34  65 NW22      29.91R
MOUNT IDA      CLOUDY    45  35  68 NW9G24    29.86R
$$

ARZ009-017-025-026-028-012200-
NORTHEAST ARKANSAS

CITY           SKY/WX    TMP DP  RH WIND       PRES   REMARKS
CORNING          N/A     52  46  82 W12       29.69S
JONESBORO      CLOUDY    52  50  93 W13       29.69S
NEWPORT        CLOUDY    52  48  86 W14       29.73R
WALNUT RIDGE   CLOUDY    52  45  76 W15       29.69R
BLYTHEVILLE    LGT RAIN  53  51  93 W12G23    29.69R
$$

ARZ022-023-033-042-044-012200-
CENTRAL ARKANSAS

CITY           SKY/WX    TMP DP  RH WIND       PRES   REMARKS
LITTLE ROCK    CLOUDY    54  44  69 W18G26    29.79R
N LITTLE ROCK  CLOUDY    52  47  84 W8G26     29.79R
JACKSONVILLE   CLOUDY    52  45  76 W18       29.78R
SEARCY         CLOUDY    51  46  83 W15       29.77R
HOT SPRINGS    CLOUDY    48  38  68 NW12G24   29.85R
RUSSELLVILLE   PTSUNNY   45  37  73 W14G25    29.84R
CLINTON        PTSUNNY   50  39  66 W18G26    29.80R
$$

ARZ036-012200-
EAST ARKANSAS

CITY           SKY/WX    TMP DP  RH WIND       PRES   REMARKS
WEST MEMPHIS   LGT RAIN  54  54 100 W12G21    29.72R
$$

ARZ050-053-066-070-073-012200-
SOUTHWEST ARKANSAS

CITY           SKY/WX    TMP DP  RH WIND       PRES   REMARKS
ARKADELPHIA    FAIR      56  43  61 W14       29.85R
CAMDEN         CLOUDY    57  52  82 MISG      29.82R
TEXARKANA      PTSUNNY   55  44  66 NW23G29   29.90R
EL DORADO      CLOUDY    58  54  86 W3        29.83R
DE QUEEN       MOSUNNY   50  35  56 NW22G30   29.92R
$$

ARZ056-057-069-012200-
SOUTHEAST ARKANSAS

CITY           SKY/WX    TMP DP  RH WIND       PRES   REMARKS
PINE BLUFF     CLOUDY    57  50  77 W15       29.78R
STUTTGART      CLOUDY    52  46  82 W21G30    29.78R
MONTICELLO     CLOUDY    58  55  90 W8        29.79R

$$





USA.gov is the U.S. government's official web portal to all federal, state and local government web resources and services.